Date String (YYYY-MM-DD hh:mm:ss) UTC,Instrument flags,Ambient pressure (hPa),Sample flow (lpm),Bypass flow (lpm),Sample temperature (°C),Ambient temperature (°C),ASC tube jacket temperature (°C),LED temperature (°C),Box temperature (°C),Sample RH (%),Span deviation,Mass concentration (μg/m³),Mass concentration (μg/m³),Mass concentration (μg/m³)
DateTimeUTC,F1_M11,P_M11,Q1_M11,Q2_M11,T1_M11,T2_M11,T3_M11,T4_M11,T5_M11,U1_M11,ZSPAN_M11,X2_M11,X0_M11,X1_M11
2023-04-12 19:00:00,,0823.3,4.99,0.00,30.4,29.1,00.0,38.7,32.0,09.3,0000.0,0003.75,0014.38,0002.59
2023-04-12 19:01:00,,0823.3,4.99,0.00,30.4,28.8,00.0,38.7,32.0,09.5,0000.0,0003.77,0015.22,0002.59
2023-04-12 19:02:00,,0823.2,5.00,0.00,30.4,27.2,00.0,38.6,31.8,09.4,0000.0,0003.81,0015.67,0002.59
2023-04-12 19:03:00,,0823.1,5.00,0.00,30.3,25.9,00.0,38.5,31.5,09.1,0000.0,0003.84,0015.30,0002.59
2023-04-12 19:04:00,,0823.1,5.01,0.00,30.2,25.9,00.0,38.4,31.4,09.3,0000.0,0003.82,0014.64,0002.59
2023-04-12 19:05:00,,0823.1,5.01,0.00,30.1,26.2,00.0,38.5,31.3,08.9,0000.0,0003.81,0014.28,0002.60
2023-04-12 19:06:00,,0823.0,5.00,0.00,30.1,26.5,00.0,38.5,31.2,09.2,0000.0,0003.76,0014.26,0002.57
2023-04-12 19:07:00,,0823.0,5.00,0.00,30.0,26.9,00.0,38.5,31.3,09.4,0000.0,0003.77,0014.77,0002.55
2023-04-12 19:08:00,,0823.0,5.00,0.00,30.0,27.2,00.0,38.4,31.4,08.9,0000.0,0003.77,0013.87,0002.53
2023-04-12 19:09:00,,0823.0,4.99,0.00,30.0,27.5,00.0,38.4,31.4,08.8,0000.0,0003.80,0013.77,0002.50
2023-04-12 19:10:00,,0822.9,5.00,0.00,30.0,27.7,00.0,38.4,31.4,08.7,0000.0,0003.78,0013.44,0002.49
2023-04-12 19:11:00,,0822.9,5.02,0.00,30.0,27.9,00.0,38.4,31.5,08.9,0000.0,0003.73,0011.32,0002.47
2023-04-12 19:12:00,,0823.0,5.01,0.00,30.0,28.1,00.0,38.4,31.6,09.0,0000.0,0003.69,0010.47,0002.46
2023-04-12 19:13:00,,0823.0,4.99,0.00,30.0,28.2,00.0,38.4,31.6,09.0,0000.0,0003.67,0010.53,0002.45
2023-04-12 19:14:00,,0823.0,4.99,0.00,30.1,28.4,00.0,38.4,31.6,08.6,0000.0,0003.67,0010.63,0002.43
2023-04-12 19:15:00,,0823.0,5.01,0.00,30.1,28.4,00.0,38.4,31.7,08.7,0000.0,0003.72,0010.55,0002.43
2023-04-12 19:16:00,,0823.0,5.00,0.00,30.1,28.5,00.0,38.4,31.7,08.5,0000.0,0003.71,0010.56,0002.41
2023-04-12 19:17:00,,0823.0,5.00,0.00,30.1,28.6,00.0,38.4,31.7,08.5,0000.0,0003.73,0010.99,0002.39
2023-04-12 19:18:00,,0822.9,5.01,0.00,30.1,28.7,00.0,38.5,31.8,08.5,0000.0,0003.73,0010.25,0002.38
2023-04-12 19:19:00,,0822.9,5.00,0.00,30.2,28.7,00.0,38.5,31.7,08.6,0000.0,0003.69,0009.77,0002.36
2023-04-12 19:20:00,,0822.9,5.01,0.00,30.2,28.7,00.0,38.5,31.8,08.7,0000.0,0003.59,0010.00,0002.35
2023-04-12 19:21:00,,0822.9,5.00,0.00,30.2,28.8,00.0,38.5,31.8,08.8,0000.0,0003.54,0009.79,0002.33
2023-04-12 19:22:00,,0822.9,5.00,0.00,30.2,28.8,00.0,38.5,31.9,08.8,0000.0,0003.51,0009.84,0002.31
2023-04-12 19:23:00,,0822.9,5.01,0.00,30.2,28.9,00.0,38.5,31.9,08.3,0000.0,0003.51,0010.27,0002.30
2023-04-12 19:24:00,,0823.0,5.00,0.00,30.3,28.9,00.0,38.6,31.9,08.5,0000.0,0003.46,0010.07,0002.27
2023-04-12 19:25:00,,0823.0,4.99,0.00,30.3,29.0,00.0,38.6,31.9,08.2,0000.0,0003.43,0010.25,0002.27
2023-04-12 19:26:00,,0823.0,5.00,0.00,30.3,29.0,00.0,38.6,32.0,08.1,0000.0,0003.39,0010.46,0002.27
2023-04-12 19:27:00,,0822.9,5.00,0.00,30.3,29.0,00.0,38.6,31.9,08.0,0000.0,0003.33,0010.33,0002.25
2023-04-12 19:28:00,,0823.0,5.01,0.00,30.4,29.1,00.0,38.6,32.0,07.9,0000.0,0003.30,0009.96,0002.26
2023-04-12 19:29:00,,0823.0,5.00,0.00,30.4,29.0,00.0,38.6,32.0,08.0,0000.0,0003.30,0009.78,0002.26
2023-04-12 19:30:00,,0823.0,4.98,0.00,30.4,27.6,00.0,38.6,31.8,08.0,0000.0,0003.33,0010.77,0002.28
2023-04-12 19:31:00,,0822.7,5.00,0.00,30.3,26.1,00.0,38.5,31.5,08.0,0000.0,0003.39,0010.57,0002.29
2023-04-12 19:32:00,,0822.7,5.00,0.00,30.2,26.0,00.0,38.4,31.4,08.3,0000.0,0003.39,0010.67,0002.29
2023-04-12 19:33:00,,0822.7,5.02,0.00,30.1,26.3,00.0,38.4,31.3,08.5,0000.0,0003.37,0010.60,0002.28
2023-04-12 19:34:00,,0822.8,5.01,0.00,30.0,26.6,00.0,38.4,31.3,08.5,0000.0,0003.36,0010.12,0002.28
2023-04-12 19:35:00,,0822.7,4.99,0.00,30.0,26.9,00.0,38.4,31.3,08.5,0000.0,0003.36,0009.87,0002.28
2023-04-12 19:36:00,,0822.9,5.01,0.00,30.0,27.3,00.0,38.4,31.3,08.8,0000.0,0003.39,0009.44,0002.27
2023-04-12 19:37:00,,0822.8,5.01,0.00,30.0,27.6,00.0,38.4,31.4,08.8,0000.0,0003.39,0009.28,0002.26
2023-04-12 19:38:00,,0822.8,4.99,0.00,30.0,27.8,00.0,38.4,31.5,08.4,0000.0,0003.39,0009.45,0002.25
2023-04-12 19:39:00,,0822.6,5.00,0.00,30.0,28.0,00.0,38.4,31.5,08.3,0000.0,0003.39,0009.83,0002.25
2023-04-12 19:40:00,,0822.9,5.00,0.00,30.0,28.2,00.0,38.4,31.5,08.5,0000.0,0003.38,0009.70,0002.24
2023-04-12 19:41:00,,0823.0,5.00,0.00,30.1,28.4,00.0,38.4,31.6,08.2,0000.0,0003.35,0008.98,0002.24
2023-04-12 19:42:00,,0822.6,5.01,0.00,30.1,28.5,00.0,38.5,31.6,08.4,0000.0,0003.32,0008.39,0002.23
2023-04-12 19:43:00,,0822.8,5.01,0.00,30.1,28.6,00.0,38.5,31.7,08.3,0000.0,0003.36,0008.42,0002.23
2023-04-12 19:44:00,,0823.0,5.00,0.00,30.1,28.7,00.0,38.5,31.7,08.3,0000.0,0003.38,0009.14,0002.24
2023-04-12 19:45:00,,0823.1,4.99,0.00,30.2,28.8,00.0,38.5,31.8,08.3,0000.0,0003.37,0009.16,0002.24
2023-04-12 19:46:00,,0823.0,4.99,0.00,30.2,28.8,00.0,38.5,31.8,08.2,0000.0,0003.39,0009.83,0002.24
2023-04-12 19:47:00,,0822.7,5.01,0.00,30.2,28.9,00.0,38.5,31.9,08.4,0000.0,0003.39,0010.19,0002.25
2023-04-12 19:48:00,,0822.5,5.01,0.00,30.2,29.0,00.0,38.6,31.9,08.4,0000.0,0003.41,0010.56,0002.26
2023-04-12 19:49:00,,0822.5,4.99,0.00,30.3,29.0,00.0,38.6,31.9,08.3,0000.0,0003.42,0011.27,0002.27
2023-04-12 19:50:00,,0822.9,4.99,0.00,30.3,29.0,00.0,38.6,31.9,08.3,0000.0,0003.41,0010.98,0002.27
2023-04-12 19:51:00,,0823.0,4.99,0.00,30.3,28.2,00.0,38.5,31.8,08.1,0000.0,0003.43,0011.55,0002.28
2023-04-12 19:52:00,,0822.5,5.01,0.00,30.3,26.4,00.0,38.4,31.5,08.1,0000.0,0003.44,0012.37,0002.28
2023-04-12 19:53:00,,0822.5,5.00,0.00,30.2,25.8,00.0,38.4,31.4,08.1,0000.0,0003.41,0012.71,0002.28
2023-04-12 19:54:00,,0822.4,5.01,0.00,30.1,26.0,00.0,38.4,31.3,08.2,0000.0,0003.40,0013.14,0002.27
2023-04-12 19:55:00,,0822.6,5.01,0.00,30.0,26.3,00.0,38.4,31.2,08.5,0000.0,0003.38,0012.59,0002.28
2023-04-12 19:56:00,,0822.4,4.99,0.00,30.0,26.7,00.0,38.4,31.2,08.3,0000.0,0003.37,0012.46,0002.28
2023-04-12 19:57:00,,0822.5,5.00,0.00,29.9,27.0,00.0,38.4,31.3,08.2,0000.0,0003.35,0012.81,0002.28
2023-04-12 19:58:00,,0822.6,5.01,0.00,29.9,27.3,00.0,38.4,31.3,08.3,0000.0,0003.35,0012.85,0002.26
2023-04-12 19:59:00,,0822.6,5.00,0.00,29.9,27.6,00.0,38.4,31.3,08.2,0000.0,0003.36,0012.43,0002.25
